Torna al catalogo

CHECKMATE 6

AttivoMilitarePO
NORAD 56165·PAYLOAD·🇺🇸 United States

Lanciato Apr 2, 2023 da Vandenberg Space Force Base

Loading…

Prossimi Passaggi (prossime 24 ore)

TLE

AggiornatoSource: Space-Track

Epoca: Sep 14, 2026, 11:39 UTC

1 56165U 23050D   26257.48552000  .00000060  00000-0  40460-4 0  9993
2 56165  81.0084 345.8881 0019701  65.1387 295.1816 13.88751637174486

Traccia CHECKMATE 6 in tempo reale con AllMySat

Download on the App Store